GMXTD EGLK-LFPB

Flight info

Callsign GMXTD
Flight time 1h 2m
Altitude 25000
Route HAZEL DCT GWC DCT BOGNA DCT HARDY UM605 PETAX/N0260F190 J150 VELOL
Aircraft B60T/L-SDFGRY/C

Departure

Time 2026-05-06 09:04
Airport Blackbushe Airport (EGLK)

Arrival

Time 2026-05-06 10:06
Airport Paris-Le Bourget International Airport (LFPB)
Time Latitude Longitude Altitude Speed Heading
2026-05-06 08:21 51.32326 -0.84421 335 ft 0 kts 90°
2026-05-06 08:52 51.32294 -0.84414 335 ft 8 kts 231°
2026-05-06 08:52 51.32275 -0.84539 333 ft 7 kts 259°
2026-05-06 08:53 51.32262 -0.84690 334 ft 17 kts 268°
2026-05-06 08:53 51.32243 -0.84831 335 ft 20 kts 261°
2026-05-06 08:53 51.32223 -0.85005 335 ft 18 kts 259°
2026-05-06 08:53 51.32204 -0.85177 333 ft 24 kts 259°
2026-05-06 08:54 51.32182 -0.85363 335 ft 16 kts 262°
2026-05-06 08:54 51.32165 -0.85473 335 ft 8 kts 257°
2026-05-06 08:54 51.32166 -0.85523 335 ft 0 kts 323°
2026-05-06 09:03 51.32169 -0.85593 335 ft 6 kts 294°
2026-05-06 09:03 51.32211 -0.85638 335 ft 7 kts 20°
2026-05-06 09:03 51.32256 -0.85469 336 ft 16 kts 71°
2026-05-06 09:03 51.32368 -0.84899 347 ft 94 kts 65°
2026-05-06 09:04 51.32533 -0.83747 797 ft 118 kts 85°
2026-05-06 09:04 51.32335 -0.82280 1220 ft 145 kts 108°
2026-05-06 09:04 51.31520 -0.81313 1581 ft 163 kts 173°
2026-05-06 09:04 51.30399 -0.81776 1849 ft 179 kts 217°
2026-05-06 09:05 51.29780 -0.83491 2146 ft 188 kts 270°
2026-05-06 09:05 51.29774 -0.85606 2546 ft 190 kts 276°
2026-05-06 09:05 51.29736 -0.87657 2683 ft 179 kts 270°
2026-05-06 09:05 51.29659 -0.89645 2838 ft 184 kts 272°
2026-05-06 09:06 51.29614 -0.91703 3014 ft 186 kts 274°
2026-05-06 09:06 51.29615 -0.93785 3071 ft 191 kts 276°
2026-05-06 09:06 51.29736 -0.95873 3168 ft 187 kts 286°
2026-05-06 09:06 51.30097 -0.97856 3255 ft 185 kts 294°
2026-05-06 09:07 51.30522 -0.99809 3290 ft 187 kts 294°
2026-05-06 09:07 51.30952 -1.01757 3450 ft 187 kts 293°
2026-05-06 09:07 51.31234 -1.03787 3655 ft 178 kts 281°
2026-05-06 09:07 51.31264 -1.05745 3720 ft 183 kts 275°
2026-05-06 09:08 51.31245 -1.07839 3898 ft 192 kts 269°
2026-05-06 09:08 51.30839 -1.09885 4191 ft 198 kts 242°
2026-05-06 09:08 51.29849 -1.11396 4522 ft 200 kts 210°
2026-05-06 09:08 51.28521 -1.11945 5184 ft 197 kts 181°
2026-05-06 09:09 51.27624 -1.11726 5616 ft 198 kts 159°
2026-05-06 09:09 51.26428 -1.10674 6270 ft 195 kts 146°
2026-05-06 09:09 51.25296 -1.09436 6802 ft 198 kts 145°
2026-05-06 09:09 51.23785 -1.07848 7695 ft 194 kts 147°
2026-05-06 09:10 51.22959 -1.07030 7890 ft 206 kts 148°
2026-05-06 09:10 51.21324 -1.05605 8829 ft 200 kts 153°
2026-05-06 09:10 51.20487 -1.04947 9302 ft 198 kts 154°
2026-05-06 09:11 51.19223 -1.03987 9903 ft 197 kts 153°
2026-05-06 09:11 51.18033 -1.03006 10621 ft 191 kts 152°
2026-05-06 09:11 51.16870 -1.02011 11258 ft 189 kts 147°
2026-05-06 09:11 51.15839 -1.00739 11927 ft 185 kts 134°
2026-05-06 09:12 51.14966 -0.99237 12557 ft 186 kts 131°
2026-05-06 09:12 51.14074 -0.97723 13140 ft 188 kts 133°
2026-05-06 09:12 51.13164 -0.96213 13750 ft 189 kts 134°
2026-05-06 09:12 51.12252 -0.94705 14293 ft 189 kts 134°
2026-05-06 09:13 51.11343 -0.93187 14829 ft 190 kts 134°
2026-05-06 09:13 51.10433 -0.91663 15367 ft 190 kts 134°
2026-05-06 09:13 51.09524 -0.90134 15904 ft 190 kts 134°
2026-05-06 09:13 51.08610 -0.88607 16437 ft 191 kts 135°
2026-05-06 09:14 51.07691 -0.87070 16921 ft 197 kts 135°
2026-05-06 09:14 51.06685 -0.85406 16966 ft 219 kts 135°
2026-05-06 09:14 51.05599 -0.83618 17175 ft 228 kts 135°
2026-05-06 09:14 51.04559 -0.81694 17675 ft 229 kts 123°
2026-05-06 09:15 51.03752 -0.79598 18482 ft 218 kts 124°
2026-05-06 09:15 51.02901 -0.77655 19135 ft 211 kts 127°
2026-05-06 09:15 51.02069 -0.75796 19758 ft 207 kts 127°
2026-05-06 09:15 51.01248 -0.73930 20371 ft 205 kts 126°
2026-05-06 09:16 51.00444 -0.72077 20968 ft 203 kts 126°
2026-05-06 09:16 50.99640 -0.70217 21570 ft 201 kts 126°
2026-05-06 09:16 50.98854 -0.68390 22159 ft 200 kts 126°
2026-05-06 09:16 50.98083 -0.66598 22732 ft 199 kts 127°
2026-05-06 09:17 50.97303 -0.64796 23322 ft 198 kts 127°
2026-05-06 09:17 50.96641 -0.63258 23755 ft 197 kts 127°
2026-05-06 09:17 50.95890 -0.61510 24210 ft 196 kts 127°
2026-05-06 09:17 50.95123 -0.59730 24675 ft 195 kts 127°
2026-05-06 09:18 50.94342 -0.57922 24922 ft 208 kts 127°
2026-05-06 09:18 50.93474 -0.55935 24970 ft 230 kts 127°
2026-05-06 09:18 50.92522 -0.53762 24985 ft 249 kts 127°
2026-05-06 09:18 50.91505 -0.51438 24987 ft 263 kts 127°
2026-05-06 09:19 50.90444 -0.49004 24987 ft 273 kts 127°
2026-05-06 09:19 50.89349 -0.46486 24986 ft 281 kts 126°
2026-05-06 09:19 50.88229 -0.43912 24987 ft 286 kts 127°
2026-05-06 09:19 50.87090 -0.41308 24985 ft 290 kts 127°
2026-05-06 09:20 50.85936 -0.38676 24986 ft 292 kts 127°
2026-05-06 09:20 50.84774 -0.36026 24986 ft 294 kts 127°
2026-05-06 09:20 50.83609 -0.33362 24988 ft 295 kts 127°
2026-05-06 09:20 50.82442 -0.30693 24990 ft 295 kts 127°
2026-05-06 09:21 50.81278 -0.28033 24989 ft 296 kts 127°
2026-05-06 09:21 50.80106 -0.25359 24989 ft 296 kts 127°
2026-05-06 09:21 50.78934 -0.22687 24989 ft 296 kts 127°
2026-05-06 09:21 50.77762 -0.20014 24989 ft 296 kts 127°
2026-05-06 09:22 50.76589 -0.17342 24988 ft 296 kts 127°
2026-05-06 09:22 50.75416 -0.14671 24987 ft 296 kts 127°
2026-05-06 09:22 50.74241 -0.12004 24985 ft 296 kts 127°
2026-05-06 09:22 50.73068 -0.09338 24985 ft 296 kts 127°
2026-05-06 09:23 50.71894 -0.06674 24984 ft 296 kts 127°
2026-05-06 09:23 50.70721 -0.04010 24982 ft 295 kts 127°
2026-05-06 09:23 50.69549 -0.01349 24981 ft 295 kts 127°
2026-05-06 09:23 50.68376 0.01308 24981 ft 295 kts 127°
2026-05-06 09:24 50.67205 0.03956 24977 ft 295 kts 127°
2026-05-06 09:24 50.66029 0.06614 24976 ft 295 kts 127°
2026-05-06 09:24 50.64856 0.09256 24971 ft 295 kts 127°
2026-05-06 09:24 50.63678 0.11901 24972 ft 295 kts 127°
2026-05-06 09:25 50.62501 0.14547 24970 ft 295 kts 127°
2026-05-06 09:25 50.61325 0.17193 24967 ft 295 kts 127°
2026-05-06 09:25 50.60147 0.19841 24969 ft 295 kts 127°
2026-05-06 09:25 50.58969 0.22484 24969 ft 295 kts 127°
2026-05-06 09:26 50.57792 0.25125 24967 ft 295 kts 127°
2026-05-06 09:26 50.56614 0.27765 24967 ft 295 kts 127°
2026-05-06 09:26 50.55438 0.30399 24969 ft 295 kts 127°
2026-05-06 09:26 50.54258 0.33032 24969 ft 294 kts 127°
2026-05-06 09:27 50.53079 0.35667 24969 ft 294 kts 127°
2026-05-06 09:27 50.51904 0.38291 24968 ft 294 kts 126°
2026-05-06 09:27 50.50726 0.40917 24967 ft 294 kts 126°
2026-05-06 09:27 50.49546 0.43543 24967 ft 294 kts 126°
2026-05-06 09:28 50.48367 0.46164 24964 ft 294 kts 126°
2026-05-06 09:28 50.47147 0.48730 24966 ft 293 kts 131°
2026-05-06 09:28 50.45695 0.50962 24968 ft 292 kts 143°
2026-05-06 09:28 50.44023 0.52760 24967 ft 291 kts 149°
2026-05-06 09:29 50.42346 0.54546 24965 ft 292 kts 144°
2026-05-06 09:29 50.40771 0.56558 24965 ft 292 kts 140°
2026-05-06 09:29 50.39233 0.58643 24965 ft 292 kts 140°
2026-05-06 09:29 50.37705 0.60680 24964 ft 292 kts 141°
2026-05-06 09:30 50.36145 0.62719 24963 ft 292 kts 141°
2026-05-06 09:30 50.34577 0.64736 24963 ft 292 kts 142°
2026-05-06 09:30 50.33021 0.66714 24964 ft 292 kts 142°
2026-05-06 09:30 50.31441 0.68709 24964 ft 292 kts 142°
2026-05-06 09:31 50.29839 0.70725 24967 ft 292 kts 142°
2026-05-06 09:31 50.28256 0.72709 24959 ft 292 kts 142°
2026-05-06 09:31 50.26650 0.74717 24643 ft 301 kts 142°
2026-05-06 09:31 50.25115 0.76623 24228 ft 263 kts 142°
2026-05-06 09:32 50.23751 0.78313 23912 ft 240 kts 142°
2026-05-06 09:32 50.22409 0.79985 23607 ft 255 kts 142°
2026-05-06 09:32 50.20972 0.81789 23303 ft 266 kts 142°
2026-05-06 09:32 50.19521 0.83622 23011 ft 269 kts 140°
2026-05-06 09:33 50.18147 0.85603 22651 ft 267 kts 135°
2026-05-06 09:33 50.16908 0.87710 22175 ft 261 kts 130°
2026-05-06 09:33 50.15719 0.89837 21711 ft 258 kts 130°
2026-05-06 09:33 50.14535 0.91929 21248 ft 257 kts 130°
2026-05-06 09:34 50.13368 0.93983 20807 ft 256 kts 130°
2026-05-06 09:34 50.12192 0.96054 20364 ft 255 kts 129°
2026-05-06 09:34 50.11004 0.98153 19930 ft 255 kts 129°
2026-05-06 09:34 50.09850 1.00193 19512 ft 254 kts 129°
2026-05-06 09:35 50.08684 1.02255 19106 ft 253 kts 129°
2026-05-06 09:35 50.07524 1.04314 18709 ft 252 kts 128°
2026-05-06 09:35 50.06369 1.06363 18319 ft 252 kts 129°
2026-05-06 09:35 50.05212 1.08403 17883 ft 251 kts 129°
2026-05-06 09:36 50.04058 1.10437 17447 ft 250 kts 129°
2026-05-06 09:36 50.02912 1.12455 17013 ft 248 kts 129°
2026-05-06 09:36 50.01774 1.14456 16601 ft 246 kts 129°
2026-05-06 09:36 50.00644 1.16448 16191 ft 245 kts 129°
2026-05-06 09:37 49.99521 1.18428 15788 ft 243 kts 129°
2026-05-06 09:37 49.98403 1.20387 15400 ft 242 kts 129°
2026-05-06 09:37 49.97289 1.22330 15024 ft 240 kts 128°
2026-05-06 09:37 49.96186 1.24268 14649 ft 238 kts 128°
2026-05-06 09:38 49.95092 1.26189 14289 ft 237 kts 128°
2026-05-06 09:38 49.93994 1.28080 13930 ft 235 kts 131°
2026-05-06 09:38 49.92740 1.29713 13552 ft 237 kts 145°
2026-05-06 09:38 49.91268 1.30876 13164 ft 237 kts 153°
2026-05-06 09:39 49.89795 1.31998 12783 ft 235 kts 147°
2026-05-06 09:39 49.88431 1.33379 12417 ft 233 kts 143°
2026-05-06 09:39 49.87102 1.34759 12093 ft 223 kts 145°
2026-05-06 09:39 49.85824 1.36000 11744 ft 212 kts 147°
2026-05-06 09:40 49.84582 1.37181 11404 ft 207 kts 147°
2026-05-06 09:40 49.83356 1.38357 11150 ft 211 kts 146°
2026-05-06 09:40 49.80801 1.40875 10730 ft 222 kts 148°
2026-05-06 09:41 49.79483 1.42127 10525 ft 223 kts 148°
2026-05-06 09:41 49.78158 1.43371 10329 ft 223 kts 149°
2026-05-06 09:41 49.76815 1.44625 10138 ft 229 kts 149°
2026-05-06 09:41 49.75430 1.45898 9955 ft 233 kts 150°
2026-05-06 09:42 49.74031 1.47191 9774 ft 235 kts 149°
2026-05-06 09:42 49.72628 1.48492 9574 ft 236 kts 149°
2026-05-06 09:42 49.71214 1.49793 9371 ft 237 kts 151°
2026-05-06 09:42 49.69697 1.50794 9168 ft 238 kts 167°
2026-05-06 09:43 49.68054 1.51017 8962 ft 237 kts 184°
2026-05-06 09:43 49.66425 1.50853 8944 ft 233 kts 184°
2026-05-06 09:43 49.64814 1.50938 8930 ft 232 kts 175°
2026-05-06 09:43 49.63219 1.51270 8924 ft 231 kts 173°
2026-05-06 09:44 49.61629 1.51588 8921 ft 230 kts 174°
2026-05-06 09:44 49.60060 1.51866 8926 ft 230 kts 174°
2026-05-06 09:44 49.58447 1.52145 8927 ft 230 kts 174°
2026-05-06 09:44 49.56874 1.52413 8922 ft 231 kts 174°
2026-05-06 09:45 49.55279 1.52687 8921 ft 230 kts 174°
2026-05-06 09:45 49.53712 1.52959 8920 ft 224 kts 174°
2026-05-06 09:45 49.52171 1.53231 8922 ft 222 kts 174°
2026-05-06 09:45 49.50641 1.53495 8925 ft 221 kts 174°
2026-05-06 09:46 49.49102 1.53758 8924 ft 226 kts 174°
2026-05-06 09:46 49.47526 1.54025 8922 ft 230 kts 174°
2026-05-06 09:46 49.45932 1.54292 8920 ft 231 kts 174°
2026-05-06 09:46 49.44335 1.54560 8910 ft 230 kts 174°
2026-05-06 09:47 49.42793 1.54785 8738 ft 218 kts 175°
2026-05-06 09:47 49.41295 1.54978 8530 ft 215 kts 175°
2026-05-06 09:47 49.39810 1.55193 8318 ft 214 kts 174°
2026-05-06 09:47 49.38333 1.55427 8109 ft 213 kts 174°
2026-05-06 09:48 49.36862 1.55668 7900 ft 212 kts 174°
2026-05-06 09:48 49.35396 1.55913 7685 ft 212 kts 174°
2026-05-06 09:48 49.33932 1.56159 7470 ft 212 kts 174°
2026-05-06 09:48 49.32412 1.56451 7275 ft 231 kts 172°
2026-05-06 09:49 49.30795 1.56797 7070 ft 228 kts 171°
2026-05-06 09:49 49.29298 1.57389 6960 ft 217 kts 158°
2026-05-06 09:49 49.27937 1.58287 6940 ft 210 kts 155°
2026-05-06 09:49 49.26608 1.59170 6928 ft 207 kts 155°
2026-05-06 09:50 49.25288 1.60045 6928 ft 206 kts 155°
2026-05-06 09:50 49.23974 1.60915 6923 ft 206 kts 155°
2026-05-06 09:50 49.22662 1.61786 6884 ft 207 kts 155°
2026-05-06 09:50 49.21308 1.62681 6632 ft 215 kts 155°
2026-05-06 09:51 49.19928 1.63589 6394 ft 217 kts 155°
2026-05-06 09:51 49.18510 1.64515 6151 ft 225 kts 156°
2026-05-06 09:51 49.17060 1.65449 5910 ft 227 kts 155°
2026-05-06 09:51 49.15854 1.66653 5582 ft 202 kts 136°
2026-05-06 09:52 49.14786 1.68125 5253 ft 210 kts 133°
2026-05-06 09:52 49.13737 1.69654 4938 ft 212 kts 131°
2026-05-06 09:52 49.12684 1.71226 4616 ft 212 kts 130°
2026-05-06 09:52 49.11640 1.72802 4282 ft 211 kts 130°
2026-05-06 09:53 49.10593 1.74363 3953 ft 210 kts 131°
2026-05-06 09:53 49.09544 1.75898 3706 ft 208 kts 132°
2026-05-06 09:53 49.08496 1.77406 3579 ft 206 kts 132°
2026-05-06 09:53 49.07461 1.78902 3515 ft 204 kts 131°
2026-05-06 09:54 49.06438 1.80392 3455 ft 203 kts 131°
2026-05-06 09:54 49.05418 1.81873 3394 ft 202 kts 131°
2026-05-06 09:54 49.04401 1.83356 3338 ft 202 kts 131°
2026-05-06 09:54 49.03387 1.84834 3259 ft 202 kts 132°
2026-05-06 09:55 49.02373 1.86311 3175 ft 202 kts 131°
2026-05-06 09:55 49.01358 1.87783 3155 ft 201 kts 131°
2026-05-06 09:55 49.00341 1.89253 3141 ft 201 kts 131°
2026-05-06 09:55 48.99329 1.90713 3100 ft 200 kts 131°
2026-05-06 09:56 48.98663 1.91673 3066 ft 199 kts 132°
2026-05-06 09:56 48.97661 1.93118 3019 ft 197 kts 131°
2026-05-06 09:56 48.96667 1.94538 2995 ft 195 kts 131°
2026-05-06 09:56 48.96551 1.94704 2992 ft 195 kts 131°
2026-05-06 09:57 48.95765 1.95822 2980 ft 193 kts 132°
2026-05-06 09:57 48.95011 1.96895 2965 ft 191 kts 132°
2026-05-06 09:57 48.94046 1.98268 2962 ft 189 kts 131°
2026-05-06 09:57 48.93089 1.99628 2967 ft 188 kts 131°
2026-05-06 09:58 48.92088 2.01063 2980 ft 205 kts 131°
2026-05-06 09:58 48.91034 2.02599 3004 ft 213 kts 130°
2026-05-06 09:58 48.90319 2.04472 3017 ft 194 kts 99°
2026-05-06 09:58 48.90061 2.06424 3010 ft 185 kts 94°
2026-05-06 09:59 48.89862 2.08334 2996 ft 182 kts 92°
2026-05-06 09:59 48.89667 2.10225 3000 ft 182 kts 92°
2026-05-06 09:59 48.89681 2.12098 2996 ft 173 kts 76°
2026-05-06 09:59 48.89874 2.13844 2976 ft 163 kts 73°
2026-05-06 10:00 48.90009 2.15530 2971 ft 162 kts 85°
2026-05-06 10:00 48.89931 2.17234 2980 ft 160 kts 86°
2026-05-06 10:00 48.90033 2.18909 2988 ft 165 kts 73°
2026-05-06 10:00 48.90248 2.20516 2992 ft 173 kts 70°
2026-05-06 10:01 48.90419 2.21402 2993 ft 174 kts 67°
2026-05-06 10:01 48.90823 2.23129 2973 ft 168 kts 64°
2026-05-06 10:01 48.91301 2.24666 2966 ft 156 kts 56°
2026-05-06 10:01 48.91802 2.26069 2890 ft 144 kts 56°
2026-05-06 10:02 48.91949 2.26480 2844 ft 149 kts 56°
2026-05-06 10:02 48.92166 2.27070 2779 ft 158 kts 55°
2026-05-06 10:02 48.92675 2.28491 2577 ft 147 kts 60°
2026-05-06 10:02 48.93056 2.29912 2381 ft 143 kts 68°
2026-05-06 10:03 48.93395 2.31306 2224 ft 137 kts 61°
2026-05-06 10:03 48.93744 2.32534 1945 ft 115 kts 60°
2026-05-06 10:03 48.94072 2.33666 1649 ft 121 kts 61°
2026-05-06 10:03 48.94448 2.34933 1458 ft 141 kts 60°
2026-05-06 10:04 48.94831 2.36257 1178 ft 136 kts 62°
2026-05-06 10:04 48.95111 2.37309 973 ft 141 kts 63°
2026-05-06 10:04 48.95136 2.37401 969 ft 140 kts 63°
2026-05-06 10:05 48.95369 2.38265 842 ft 119 kts 63°
2026-05-06 10:05 48.95692 2.39466 679 ft 126 kts 60°
2026-05-06 10:05 48.95994 2.40680 476 ft 123 kts 59°
2026-05-06 10:05 48.96350 2.41897 270 ft 127 kts 62°
2026-05-06 10:06 48.96649 2.43018 174 ft 97 kts 61°
2026-05-06 10:06 48.96818 2.43637 177 ft 42 kts 67°
2026-05-06 10:06 48.96942 2.44128 183 ft 36 kts 76°
2026-05-06 10:06 48.96892 2.44359 183 ft 12 kts 145°
2026-05-06 10:07 48.96789 2.44424 183 ft 17 kts 163°
2026-05-06 10:07 48.96677 2.44487 176 ft 23 kts 164°
2026-05-06 10:07 48.96569 2.44527 176 ft 11 kts 163°
2026-05-06 10:07 48.96415 2.44546 169 ft 18 kts 182°
2026-05-06 10:08 48.96326 2.44500 166 ft 8 kts 205°
2026-05-06 10:08 48.96244 2.44440 165 ft 13 kts 200°
2026-05-06 10:08 48.96172 2.44391 161 ft 19 kts 209°
2026-05-06 10:08 48.96023 2.44286 157 ft 15 kts 204°
2026-05-06 10:09 48.95924 2.44216 153 ft 18 kts 207°
2026-05-06 10:09 48.95853 2.44168 151 ft 12 kts 207°
2026-05-06 10:09 48.95720 2.44073 150 ft 25 kts 204°
2026-05-06 10:09 48.95590 2.43982 150 ft 17 kts 206°
2026-05-06 10:10 48.95459 2.43884 149 ft 23 kts 205°
2026-05-06 10:10 48.95353 2.43796 147 ft 11 kts 211°
2026-05-06 10:10 48.95290 2.43752 147 ft 10 kts 169°
2026-05-06 10:10 48.95235 2.43803 147 ft 11 kts 207°
2026-05-06 10:11 48.95211 2.43761 146 ft 1 kts 161°
2026-05-06 10:11 48.95210 2.43764 146 ft 0 kts 121°